Time,TemperatureF,DewpointF,PressureIn,WindDirection,WindDirectionDegrees,WindSpeedMPH,WindSpeedGustMPH,Humidity,HourlyPrecipIn,Conditions,Clouds,dailyrainin,SoftwareType,DateUTC
2013-07-11 00:08:00,78.6,52.3,29.83,SSE,160,1.0,1.0,40,0.00,,,0.00,Wunderground v.1.15,2013-07-11 06:08:00,
2013-07-11 00:13:00,78.6,52.3,29.84,SSE,156,1.0,1.0,40,0.00,,,0.00,Wunderground v.1.15,2013-07-11 06:13:00,
2013-07-11 00:23:00,78.4,52.1,29.83,SE,145,1.0,2.0,40,0.00,,,0.00,Wunderground v.1.15,2013-07-11 06:23:00,
2013-07-11 00:33:00,77.8,54.8,29.83,SSE,165,5.0,6.0,45,0.00,,,0.00,Wunderground v.1.15,2013-07-11 06:33:00,
2013-07-11 00:43:00,76.6,56.0,29.84,SE,137,4.0,5.0,49,0.00,,,0.00,Wunderground v.1.15,2013-07-11 06:43:00,
2013-07-11 00:48:00,76.1,57.2,29.84,SSE,153,4.0,4.0,52,0.00,,,0.00,Wunderground v.1.15,2013-07-11 06:48:00,
2013-07-11 00:58:00,75.4,57.1,29.83,South,172,5.0,5.0,53,0.00,,,0.00,Wunderground v.1.15,2013-07-11 06:58:00,
2013-07-11 01:08:00,75.3,56.5,29.83,SSW,195,2.0,2.0,52,0.00,,,0.00,Wunderground v.1.15,2013-07-11 07:08:00,
2013-07-11 01:13:00,75.3,56.5,29.83,SSW,201,1.0,2.0,52,0.00,,,0.00,Wunderground v.1.15,2013-07-11 07:13:00,
2013-07-11 01:23:00,75.4,54.9,29.84,SE,129,3.0,5.0,49,0.00,,,0.00,Wunderground v.1.15,2013-07-11 07:23:00,
2013-07-11 01:33:00,75.2,56.4,29.85,SSW,203,4.0,4.0,52,0.00,,,0.00,Wunderground v.1.15,2013-07-11 07:33:00,
2013-07-11 01:38:00,75.0,56.7,29.85,ESE,114,4.0,8.0,53,0.00,,,0.00,Wunderground v.1.15,2013-07-11 07:38:00,
2013-07-11 01:43:00,74.7,57.5,29.85,SE,131,5.0,8.0,55,0.00,,,0.00,Wunderground v.1.15,2013-07-11 07:43:00,
2013-07-11 01:48:00,74.5,57.8,29.85,SE,125,6.0,6.0,56,0.00,,,0.00,Wunderground v.1.15,2013-07-11 07:48:00,
2013-07-11 01:58:00,74.3,56.6,29.86,South,176,7.0,9.0,54,0.00,,,0.00,Wunderground v.1.15,2013-07-11 07:58:00,
2013-07-11 02:08:00,73.2,57.1,29.86,SE,129,9.0,18.0,57,0.00,,,0.00,Wunderground v.1.15,2013-07-11 08:08:00,
2013-07-11 02:13:00,72.6,57.4,29.86,SE,141,10.0,18.0,59,0.00,,,0.00,Wunderground v.1.15,2013-07-11 08:13:00,
2013-07-11 02:23:00,71.9,57.3,29.86,ESE,117,9.0,11.0,60,0.00,,,0.00,Wunderground v.1.15,2013-07-11 08:23:00,
2013-07-11 02:28:00,71.7,57.5,29.86,ESE,110,9.0,9.0,61,0.00,,,0.00,Wunderground v.1.15,2013-07-11 08:28:00,
2013-07-11 02:33:00,71.4,57.7,29.86,SE,132,8.0,9.0,62,0.00,,,0.00,Wunderground v.1.15,2013-07-11 08:33:00,
2013-07-11 02:43:00,71.3,57.2,29.85,ESE,120,8.0,12.0,61,0.00,,,0.00,Wunderground v.1.15,2013-07-11 08:43:00,
2013-07-11 02:53:00,71.6,56.5,29.85,ESE,107,6.0,8.0,59,0.00,,,0.00,Wunderground v.1.15,2013-07-11 08:53:00,
2013-07-11 02:58:00,71.8,56.7,29.85,SE,138,6.0,7.0,59,0.00,,,0.00,Wunderground v.1.15,2013-07-11 08:58:00,
2013-07-11 03:08:00,72.0,56.9,29.85,SSE,153,5.0,5.0,59,0.00,,,0.00,Wunderground v.1.15,2013-07-11 09:08:00,
2013-07-11 03:18:00,72.1,56.5,29.84,ESE,108,7.0,8.0,58,0.00,,,0.00,Wunderground v.1.15,2013-07-11 09:18:00,
2013-07-11 03:23:00,72.2,57.1,29.85,SE,128,7.0,9.0,59,0.00,,,0.00,Wunderground v.1.15,2013-07-11 09:23:00,
2013-07-11 03:33:00,72.0,56.4,29.85,ESE,114,6.0,7.0,58,0.00,,,0.00,Wunderground v.1.15,2013-07-11 09:33:00,
2013-07-11 03:43:00,71.6,56.5,29.85,SE,132,5.0,8.0,59,0.00,,,0.00,Wunderground v.1.15,2013-07-11 09:43:00,
2013-07-11 03:48:00,71.4,56.3,29.86,SE,139,6.0,6.0,59,0.00,,,0.00,Wunderground v.1.15,2013-07-11 09:48:00,
2013-07-11 03:58:00,71.2,56.6,29.86,SE,129,5.0,5.0,60,0.00,,,0.00,Wunderground v.1.15,2013-07-11 09:58:00,
2013-07-11 04:08:00,71.0,56.4,29.86,SSE,160,4.0,4.0,60,0.00,,,0.00,Wunderground v.1.15,2013-07-11 10:08:00,
2013-07-11 04:18:00,70.6,56.5,29.87,SE,142,5.0,8.0,61,0.00,,,0.00,Wunderground v.1.15,2013-07-11 10:18:00,
2013-07-11 04:28:00,70.3,56.2,29.88,SE,141,3.0,6.0,61,0.00,,,0.00,Wunderground v.1.15,2013-07-11 10:28:00,
2013-07-11 04:33:00,70.1,56.5,29.88,ESE,117,4.0,6.0,62,0.00,,,0.00,Wunderground v.1.15,2013-07-11 10:33:00,
2013-07-11 04:43:00,70.1,56.5,29.89,South,172,3.0,5.0,62,0.00,,,0.00,Wunderground v.1.15,2013-07-11 10:43:00,
2013-07-11 04:53:00,70.1,56.5,29.89,SSE,165,5.0,5.0,62,0.00,,,0.00,Wunderground v.1.15,2013-07-11 10:53:00,
2013-07-11 04:58:00,69.9,56.3,29.89,SE,134,6.0,7.0,62,0.00,,,0.00,Wunderground v.1.15,2013-07-11 10:58:00,
2013-07-11 05:08:00,69.8,56.6,29.89,ESE,111,5.0,7.0,63,0.00,,,0.00,Wunderground v.1.15,2013-07-11 11:08:00,
2013-07-11 05:13:00,69.7,56.5,29.90,ESE,122,5.0,7.0,63,0.00,,,0.00,Wunderground v.1.15,2013-07-11 11:13:00,
2013-07-11 05:18:00,69.6,56.4,29.89,ESE,121,5.0,5.0,63,0.00,,,0.00,Wunderground v.1.15,2013-07-11 11:18:00,
2013-07-11 05:28:00,69.5,56.3,29.89,SE,141,4.0,4.0,63,0.00,,,0.00,Wunderground v.1.15,2013-07-11 11:28:00,
2013-07-11 05:38:00,69.7,57.0,29.89,ESE,121,4.0,5.0,64,0.00,,,0.00,Wunderground v.1.15,2013-07-11 11:38:00,
2013-07-11 05:48:00,69.7,57.0,29.89,ESE,119,5.0,5.0,64,0.00,,,0.00,Wunderground v.1.15,2013-07-11 11:48:00,
2013-07-11 05:53:00,69.7,57.0,29.89,SSE,160,5.0,5.0,64,0.00,,,0.00,Wunderground v.1.15,2013-07-11 11:53:00,
2013-07-11 05:58:00,69.8,57.1,29.90,South,191,3.0,3.0,64,0.00,,,0.00,Wunderground v.1.15,2013-07-11 11:58:00,
2013-07-11 06:08:00,69.9,57.6,29.90,SSE,148,3.0,3.0,65,0.00,,,0.00,Wunderground v.1.15,2013-07-11 12:08:00,
2013-07-11 06:18:00,69.8,57.5,29.91,South,186,4.0,4.0,65,0.00,,,0.00,Wunderground v.1.15,2013-07-11 12:18:00,
2013-07-11 06:28:00,69.9,57.2,29.91,SSE,158,4.0,4.0,64,0.00,,,0.00,Wunderground v.1.15,2013-07-11 12:28:00,
2013-07-11 06:33:00,70.0,56.8,29.91,SSW,211,4.0,5.0,63,0.00,,,0.00,Wunderground v.1.15,2013-07-11 12:33:00,
2013-07-11 06:43:00,70.1,56.9,29.92,SSW,197,3.0,4.0,63,0.00,,,0.00,Wunderground v.1.15,2013-07-11 12:43:00,
2013-07-11 06:53:00,70.1,56.9,29.92,South,176,2.0,3.0,63,0.00,,,0.00,Wunderground v.1.15,2013-07-11 12:53:00,
2013-07-11 06:58:00,70.0,56.8,29.92,SSW,195,2.0,4.0,63,0.00,,,0.00,Wunderground v.1.15,2013-07-11 12:58:00,
2013-07-11 07:08:00,70.1,57.8,29.92,SSW,208,3.0,3.0,65,0.00,,,0.00,Wunderground v.1.15,2013-07-11 13:08:00,
2013-07-11 07:13:00,70.0,57.7,29.92,South,186,3.0,7.0,65,0.00,,,0.00,Wunderground v.1.15,2013-07-11 13:13:00,
2013-07-11 07:23:00,70.0,57.7,29.93,SSE,160,3.0,3.0,65,0.00,,,0.00,Wunderground v.1.15,2013-07-11 13:23:00,
2013-07-11 07:43:00,69.9,58.9,29.94,SSE,149,4.0,5.0,68,0.00,,,0.00,Wunderground v.1.15,2013-07-11 13:43:00,
2013-07-11 07:53:00,69.7,59.1,29.94,SW,226,5.0,9.0,69,0.00,,,0.00,Wunderground v.1.15,2013-07-11 13:53:00,
2013-07-11 07:58:00,69.7,59.1,29.94,South,180,5.0,6.0,69,0.00,,,0.00,Wunderground v.1.15,2013-07-11 13:58:00,
2013-07-11 08:08:00,69.6,59.4,29.94,SE,139,5.0,7.0,70,0.00,,,0.00,Wunderground v.1.15,2013-07-11 14:08:00,
2013-07-11 08:18:00,69.7,59.5,29.94,SSE,156,4.0,5.0,70,0.00,,,0.00,Wunderground v.1.15,2013-07-11 14:18:00,
2013-07-11 08:28:00,70.0,59.4,29.94,SSW,197,3.0,3.0,69,0.00,,,0.00,Wunderground v.1.15,2013-07-11 14:28:00,
2013-07-11 08:33:00,70.3,59.2,29.94,SE,129,3.0,6.0,68,0.00,,,0.00,Wunderground v.1.15,2013-07-11 14:33:00,
2013-07-11 08:43:00,71.1,59.6,29.94,SE,124,4.0,5.0,67,0.00,,,0.00,Wunderground v.1.15,2013-07-11 14:43:00,
2013-07-11 08:53:00,71.5,58.2,29.94,SE,129,5.0,6.0,63,0.00,,,0.00,Wunderground v.1.15,2013-07-11 14:53:00,
2013-07-11 08:58:00,71.3,58.9,29.95,SSE,155,5.0,5.0,65,0.00,,,0.00,Wunderground v.1.15,2013-07-11 14:58:00,
2013-07-11 09:08:00,71.7,59.3,29.94,SE,135,5.0,5.0,65,0.00,,,0.00,Wunderground v.1.15,2013-07-11 15:08:00,
2013-07-11 09:13:00,72.4,59.1,29.94,SE,141,4.0,5.0,63,0.00,,,0.00,Wunderground v.1.15,2013-07-11 15:13:00,
2013-07-11 09:23:00,72.8,59.5,29.93,SE,132,3.0,5.0,63,0.00,,,0.00,Wunderground v.1.15,2013-07-11 15:23:00,
2013-07-11 09:28:00,72.7,59.4,29.92,SE,130,4.0,7.0,63,0.00,,,0.00,Wunderground v.1.15,2013-07-11 15:28:00,
2013-07-11 09:33:00,73.1,59.3,29.92,SE,145,4.0,7.0,62,0.00,,,0.00,Wunderground v.1.15,2013-07-11 15:33:00,
2013-07-11 09:53:00,75.2,57.9,29.91,East,86,2.0,4.0,55,0.00,,,0.00,Wunderground v.1.15,2013-07-11 15:53:00,
2013-07-11 09:58:00,75.7,57.4,29.90,SE,131,2.0,2.0,53,0.00,,,0.00,Wunderground v.1.15,2013-07-11 15:58:00,
2013-07-11 10:13:00,76.2,57.8,29.90,ESE,103,1.0,2.0,53,0.00,,,0.00,Wunderground v.1.15,2013-07-11 16:13:00,
2013-07-11 10:18:00,76.3,57.9,29.89,NE,55,0.0,0.0,53,0.00,,,0.00,Wunderground v.1.15,2013-07-11 16:18:00,
2013-07-11 10:28:00,76.1,56.7,29.89,East,100,1.0,1.0,51,0.00,,,0.00,Wunderground v.1.15,2013-07-11 16:28:00,
2013-07-11 10:33:00,76.2,57.3,29.88,East,97,1.0,1.0,52,0.00,,,0.00,Wunderground v.1.15,2013-07-11 16:33:00,
2013-07-11 10:43:00,76.8,57.8,29.87,NNW,340,2.0,3.0,52,0.00,,,0.00,Wunderground v.1.15,2013-07-11 16:43:00,
2013-07-11 10:58:00,77.4,57.3,29.86,NNW,345,3.0,3.0,50,0.00,,,0.00,Wunderground v.1.15,2013-07-11 16:58:00,
2013-07-11 11:13:00,78.6,57.8,29.85,NNW,345,3.0,5.0,49,0.00,,,0.00,Wunderground v.1.15,2013-07-11 17:13:00,
2013-07-11 11:28:00,78.8,57.4,29.85,WNW,297,5.0,5.0,48,0.00,,,0.00,Wunderground v.1.15,2013-07-11 17:28:00,
2013-07-11 11:38:00,79.2,57.8,29.85,NNW,338,3.0,3.0,48,0.00,,,0.00,Wunderground v.1.15,2013-07-11 17:38:00,
2013-07-11 11:48:00,79.5,58.1,29.84,West,274,2.0,2.0,48,0.00,,,0.00,Wunderground v.1.15,2013-07-11 17:48:00,
2013-07-11 11:58:00,79.9,57.9,29.84,NNW,333,4.0,4.0,47,0.00,,,0.00,Wunderground v.1.15,2013-07-11 17:58:00,
2013-07-11 12:08:00,80.8,57.5,29.84,North,352,3.0,3.0,45,0.00,,,0.00,Wunderground v.1.15,2013-07-11 18:08:00,
2013-07-11 12:13:00,80.6,57.3,29.84,WNW,294,3.0,4.0,45,0.00,,,0.00,Wunderground v.1.15,2013-07-11 18:13:00,
2013-07-11 12:23:00,80.7,57.4,29.85,WSW,237,2.0,4.0,45,0.00,,,0.00,Wunderground v.1.15,2013-07-11 18:23:00,
2013-07-11 12:33:00,80.5,57.8,29.85,WSW,238,2.0,2.0,46,0.00,,,0.00,Wunderground v.1.15,2013-07-11 18:33:00,
2013-07-11 12:38:00,80.6,57.9,29.85,South,177,3.0,3.0,46,0.00,,,0.00,Wunderground v.1.15,2013-07-11 18:38:00,
2013-07-11 12:48:00,81.2,57.2,29.85,SW,231,3.0,3.0,44,0.00,,,0.00,Wunderground v.1.15,2013-07-11 18:48:00,
2013-07-11 12:58:00,82.5,57.1,29.84,SSE,150,2.0,3.0,42,0.00,,,0.00,Wunderground v.1.15,2013-07-11 18:58:00,
2013-07-11 13:13:00,85.1,58.1,29.83,SSE,160,2.0,7.0,40,0.00,,,0.00,Wunderground v.1.15,2013-07-11 19:13:00,
2013-07-11 13:18:00,85.4,57.6,29.83,SE,135,3.0,3.0,39,0.00,,,0.00,Wunderground v.1.15,2013-07-11 19:18:00,
2013-07-11 13:23:00,85.4,56.9,29.83,SSW,201,3.0,3.0,38,0.00,,,0.00,Wunderground v.1.15,2013-07-11 19:23:00,
2013-07-11 13:33:00,86.4,53.9,29.82,SE,131,1.0,5.0,33,0.00,,,0.00,Wunderground v.1.15,2013-07-11 19:33:00,
2013-07-11 13:38:00,86.0,54.4,29.82,SSW,207,4.0,7.0,34,0.00,,,0.00,Wunderground v.1.15,2013-07-11 19:38:00,
2013-07-11 13:48:00,86.4,54.7,29.82,South,177,3.0,3.0,34,0.00,,,0.00,Wunderground v.1.15,2013-07-11 19:48:00,
2013-07-11 13:58:00,85.9,55.1,29.81,ESE,113,3.0,3.0,35,0.00,,,0.00,Wunderground v.1.15,2013-07-11 19:58:00,
2013-07-11 14:08:00,85.6,54.8,29.81,SSE,152,3.0,3.0,35,0.00,,,0.00,Wunderground v.1.15,2013-07-11 20:08:00,
2013-07-11 14:18:00,85.9,55.8,29.81,SSW,203,3.0,3.0,36,0.00,,,0.00,Wunderground v.1.15,2013-07-11 20:18:00,
2013-07-11 14:23:00,85.7,56.4,29.81,South,172,4.0,6.0,37,0.00,,,0.00,Wunderground v.1.15,2013-07-11 20:23:00,
2013-07-11 14:38:00,85.7,55.7,29.80,SE,127,4.0,5.0,36,0.00,,,0.00,Wunderground v.1.15,2013-07-11 20:38:00,
2013-07-11 14:53:00,86.4,53.9,29.80,SSW,212,4.0,4.0,33,0.00,,,0.00,Wunderground v.1.15,2013-07-11 20:53:00,
2013-07-11 14:58:00,86.5,50.5,29.80,South,181,5.0,8.0,29,0.00,,,0.00,Wunderground v.1.15,2013-07-11 20:58:00,
2013-07-11 15:08:00,87.0,50.9,29.80,WSW,239,5.0,5.0,29,0.00,,,0.00,Wunderground v.1.15,2013-07-11 21:08:00,
2013-07-11 15:13:00,87.4,51.2,29.80,South,191,4.0,5.0,29,0.00,,,0.00,Wunderground v.1.15,2013-07-11 21:13:00,
2013-07-11 15:28:00,87.7,51.5,29.79,SSW,210,3.0,6.0,29,0.00,,,0.00,Wunderground v.1.15,2013-07-11 21:28:00,
2013-07-11 15:38:00,87.7,53.3,29.78,SW,225,4.0,4.0,31,0.00,,,0.00,Wunderground v.1.15,2013-07-11 21:38:00,
2013-07-11 15:48:00,87.8,52.5,29.77,South,176,4.0,6.0,30,0.00,,,0.00,Wunderground v.1.15,2013-07-11 21:48:00,
2013-07-11 15:58:00,87.7,51.5,29.77,WSW,242,3.0,3.0,29,0.00,,,0.00,Wunderground v.1.15,2013-07-11 21:58:00,
2013-07-11 16:08:00,88.0,53.6,29.77,SSE,166,4.0,8.0,31,0.00,,,0.00,Wunderground v.1.15,2013-07-11 22:08:00,
2013-07-11 16:13:00,87.8,52.5,29.76,WNW,284,4.0,8.0,30,0.00,,,0.00,Wunderground v.1.15,2013-07-11 22:13:00,
2013-07-11 16:23:00,87.5,53.1,29.76,South,187,6.0,6.0,31,0.00,,,0.00,Wunderground v.1.15,2013-07-11 22:23:00,
2013-07-11 16:33:00,88.3,53.8,29.75,ESE,102,4.0,5.0,31,0.00,,,0.00,Wunderground v.1.15,2013-07-11 22:33:00,
2013-07-11 16:48:00,88.0,52.7,29.75,SW,221,5.0,5.0,30,0.00,,,0.00,Wunderground v.1.15,2013-07-11 22:48:00,
2013-07-11 16:53:00,87.9,53.5,29.75,SSW,212,5.0,6.0,31,0.00,,,0.00,Wunderground v.1.15,2013-07-11 22:53:00,
2013-07-11 16:58:00,88.5,54.9,29.75,SW,224,5.0,5.0,32,0.00,,,0.00,Wunderground v.1.15,2013-07-11 22:58:00,
2013-07-11 17:13:00,88.3,55.6,29.75,SSW,205,6.0,8.0,33,0.00,,,0.00,Wunderground v.1.15,2013-07-11 23:13:00,
2013-07-11 17:18:00,88.4,54.8,29.75,SSW,200,5.0,6.0,32,0.00,,,0.00,Wunderground v.1.15,2013-07-11 23:18:00,
2013-07-11 17:28:00,88.4,53.0,29.75,SSW,198,6.0,6.0,30,0.00,,,0.00,Wunderground v.1.15,2013-07-11 23:28:00,
2013-07-11 17:38:00,89.0,54.4,29.74,SSE,153,4.0,4.0,31,0.00,,,0.00,Wunderground v.1.15,2013-07-11 23:38:00,
2013-07-11 17:48:00,88.8,56.8,29.74,SSW,212,5.0,10.0,34,0.00,,,0.00,Wunderground v.1.15,2013-07-11 23:48:00,
2013-07-11 17:58:00,89.1,55.4,29.73,WSW,255,4.0,6.0,32,0.00,,,0.00,Wunderground v.1.15,2013-07-11 23:58:00,
2013-07-11 18:13:00,89.0,56.2,29.73,South,179,4.0,4.0,33,0.00,,,0.00,Wunderground v.1.15,2013-07-12 00:13:00,
2013-07-11 18:18:00,89.2,55.5,29.73,South,172,4.0,6.0,32,0.00,,,0.00,Wunderground v.1.15,2013-07-12 00:18:00,
2013-07-11 18:28:00,88.7,56.7,29.73,SSE,158,4.0,4.0,34,0.00,,,0.00,Wunderground v.1.15,2013-07-12 00:28:00,
2013-07-11 18:38:00,88.6,57.4,29.73,South,178,4.0,6.0,35,0.00,,,0.00,Wunderground v.1.15,2013-07-12 00:38:00,
2013-07-11 18:48:00,88.1,57.0,29.73,SSW,195,4.0,9.0,35,0.00,,,0.00,Wunderground v.1.15,2013-07-12 00:48:00,
2013-07-11 18:53:00,87.7,57.4,29.73,SE,135,4.0,9.0,36,0.00,,,0.00,Wunderground v.1.15,2013-07-12 00:53:00,
2013-07-11 19:03:00,88.4,56.5,29.73,SSE,163,2.0,4.0,34,0.00,,,0.00,Wunderground v.1.15,2013-07-12 01:03:00,
2013-07-11 19:08:00,88.5,55.7,29.73,SSW,210,3.0,3.0,33,0.00,,,0.00,Wunderground v.1.15,2013-07-12 01:08:00,
2013-07-11 19:18:00,88.0,54.4,29.73,SSW,200,4.0,4.0,32,0.00,,,0.00,Wunderground v.1.15,2013-07-12 01:18:00,
2013-07-11 19:28:00,87.3,53.8,29.74,SSE,154,6.0,8.0,32,0.00,,,0.00,Wunderground v.1.15,2013-07-12 01:28:00,
2013-07-11 19:33:00,86.8,53.4,29.74,SSE,153,7.0,9.0,32,0.00,,,0.00,Wunderground v.1.15,2013-07-12 01:33:00,
2013-07-11 19:43:00,86.1,53.6,29.74,SE,130,5.0,8.0,33,0.00,,,0.00,Wunderground v.1.15,2013-07-12 01:43:00,
2013-07-11 19:48:00,85.6,53.2,29.74,SSE,156,5.0,5.0,33,0.00,,,0.00,Wunderground v.1.15,2013-07-12 01:48:00,
2013-07-11 19:58:00,85.2,53.7,29.75,SSE,159,4.0,7.0,34,0.00,,,0.00,Wunderground v.1.15,2013-07-12 01:58:00,
2013-07-11 20:08:00,84.8,54.1,29.75,SE,146,6.0,6.0,35,0.00,,,0.00,Wunderground v.1.15,2013-07-12 02:08:00,
2013-07-11 20:18:00,84.2,54.4,29.75,South,181,2.0,4.0,36,0.00,,,0.00,Wunderground v.1.15,2013-07-12 02:18:00,
2013-07-11 20:23:00,83.9,53.3,29.75,WSW,242,4.0,4.0,35,0.00,,,0.00,Wunderground v.1.15,2013-07-12 02:23:00,
2013-07-11 20:28:00,83.8,53.2,29.76,South,188,5.0,5.0,35,0.00,,,0.00,Wunderground v.1.15,2013-07-12 02:28:00,
2013-07-11 20:43:00,83.4,52.1,29.76,SW,218,3.0,5.0,34,0.00,,,0.00,Wunderground v.1.15,2013-07-12 02:43:00,
2013-07-11 20:58:00,83.0,51.7,29.77,SSE,162,4.0,4.0,34,0.00,,,0.00,Wunderground v.1.15,2013-07-12 02:58:00,
2013-07-11 21:08:00,82.7,52.3,29.76,SSE,150,3.0,3.0,35,0.00,,,0.00,Wunderground v.1.15,2013-07-12 03:08:00,
2013-07-11 21:18:00,82.3,52.7,29.76,ESE,121,4.0,4.0,36,0.00,,,0.00,Wunderground v.1.15,2013-07-12 03:18:00,
2013-07-11 21:23:00,82.1,52.5,29.76,SE,132,3.0,4.0,36,0.00,,,0.00,Wunderground v.1.15,2013-07-12 03:23:00,
2013-07-11 21:38:00,81.6,52.1,29.77,South,180,2.0,2.0,36,0.00,,,0.00,Wunderground v.1.15,2013-07-12 03:38:00,
2013-07-11 21:48:00,81.2,51.7,29.78,SE,132,2.0,3.0,36,0.00,,,0.00,Wunderground v.1.15,2013-07-12 03:48:00,
2013-07-11 21:58:00,81.1,52.4,29.78,SSE,153,3.0,3.0,37,0.00,,,0.00,Wunderground v.1.15,2013-07-12 03:58:00,
2013-07-11 22:03:00,80.8,52.1,29.78,SE,135,2.0,3.0,37,0.00,,,0.00,Wunderground v.1.15,2013-07-12 04:03:00,
2013-07-11 22:08:00,80.5,51.8,29.78,SE,144,2.0,3.0,37,0.00,,,0.00,Wunderground v.1.15,2013-07-12 04:08:00,
2013-07-11 22:13:00,80.4,52.5,29.79,SE,127,2.0,3.0,38,0.00,,,0.00,Wunderground v.1.15,2013-07-12 04:13:00,
2013-07-11 22:23:00,80.0,52.8,29.79,ESE,107,1.0,2.0,39,0.00,,,0.00,Wunderground v.1.15,2013-07-12 04:23:00,
2013-07-11 22:28:00,79.9,52.7,29.79,SE,139,1.0,1.0,39,0.00,,,0.00,Wunderground v.1.15,2013-07-12 04:28:00,
2013-07-11 22:33:00,79.8,52.6,29.79,ESE,105,1.0,1.0,39,0.00,,,0.00,Wunderground v.1.15,2013-07-12 04:33:00,
2013-07-11 22:38:00,79.8,51.9,29.79,SE,130,2.0,3.0,38,0.00,,,0.00,Wunderground v.1.15,2013-07-12 04:38:00,
2013-07-11 22:48:00,79.8,51.9,29.80,SSE,156,3.0,3.0,38,0.00,,,0.00,Wunderground v.1.15,2013-07-12 04:48:00,
2013-07-11 22:58:00,79.6,52.5,29.80,SSE,152,2.0,2.0,39,0.00,,,0.00,Wunderground v.1.15,2013-07-12 04:58:00,
2013-07-11 23:08:00,79.4,52.3,29.80,SE,141,3.0,3.0,39,0.00,,,0.00,Wunderground v.1.15,2013-07-12 05:08:00,
2013-07-11 23:13:00,79.2,52.8,29.81,SSE,157,1.0,3.0,40,0.00,,,0.00,Wunderground v.1.15,2013-07-12 05:13:00,
2013-07-11 23:23:00,78.8,53.8,29.82,NNW,335,3.0,3.0,42,0.00,,,0.00,Wunderground v.1.15,2013-07-12 05:23:00,
2013-07-11 23:33:00,78.3,54.6,29.82,NNE,23,2.0,4.0,44,0.00,,,0.00,Wunderground v.1.15,2013-07-12 05:33:00,
2013-07-11 23:43:00,77.2,54.8,29.81,NE,53,3.0,5.0,46,0.00,,,0.00,Wunderground v.1.15,2013-07-12 05:43:00,
2013-07-11 23:48:00,76.9,54.5,29.82,NE,47,1.0,2.0,46,0.00,,,0.00,Wunderground v.1.15,2013-07-12 05:48:00,
2013-07-11 23:58:00,76.8,55.6,29.82,NE,39,2.0,5.0,48,0.00,,,0.00,Wunderground v.1.15,2013-07-12 05:58:00,